Weather History for Hobbs, NM

Change the Weather History Date:

Monday, March 18, 2013

  Actual Average Record
Temperature  
Mean Temperature 58 °F -  
Max Temperature 73 °F 66 °F 86 °F (2004)
Min Temperature 44 °F 39 °F 25 °F (1951)
Degree Days  
Heating Degree Days 6    
Growing Degree Days 8 (Base 50)    
Moisture  
Dew Point 12 °F    
Average Humidity 18    
Maximum Humidity 38    
Minimum Humidity 8    
Precipitation  
Precipitation 0.00 in - - ()
Sea Level Pressure  
Sea Level Pressure 29.91 in    
Wind  
Wind Speed 11 mph (SW)    
Max Wind Speed 18 mph    
Max Gust Speed 24 mph    
Visibility 10 miles    
Events      
Averages and records for this station are not official NWS values.
T = Trace of Precipitation, MM = Missing Value Source: NWS Daily Summary

Daily Weather History Graph

Daily Weather History Graph

Search for Another Location

Airport:

Trip Planner

Search our weather history database for the weather conditions in past years. The results will help you decide how hot, cold, wet, or windy it might be!

Date:

Astronomy

Mar. 18, 2013 Rise Set
Actual Time 6:58 AM MDT 7:03 PM MDT
Civil Twilight 6:34 AM MDT 7:27 PM MDT
Nautical Twilight 6:05 AM MDT 7:56 PM MDT
Astronomical Twilight 5:36 AM MDT 8:25 PM MDT
Moon 11:18 AM MDT (3/18) 12:46 AM MDT (3/18)
Length of Visible Light 12h 53m
Length of Day
12h 04m
Waxing Crescent, 41% of the Moon is Illuminated
Mar 18
Waxing Crescent
Mar 19
First Quarter
Mar 27
Full
Apr 2
Last Quarter
Apr 10
New

Hourly Weather History & Observations

Time (MDT) Temp. Windchill Dew Point Humidity Pressure Visibility Wind Dir Wind Speed Gust Speed Precip Events Conditions
12:15 AM 59.0 °F - 19.4 °F 22% 29.79 in 10.0 mi WSW 15.0 mph - N/A   Clear
12:35 AM 59.0 °F - 19.4 °F 22% 29.80 in 10.0 mi WSW 12.7 mph - N/A   Clear
12:55 AM 57.2 °F - 17.6 °F 21% 29.80 in 10.0 mi WSW 13.8 mph - N/A   Clear
1:15 AM 57.2 °F - 17.6 °F 21% 29.81 in 10.0 mi WSW 15.0 mph - N/A   Clear
1:35 AM 57.2 °F - 15.8 °F 20% 29.81 in 10.0 mi WSW 13.8 mph - N/A   Clear
1:55 AM 55.4 °F - 15.8 °F 21% 29.81 in 10.0 mi WSW 11.5 mph - N/A   Clear
2:15 AM 55.4 °F - 15.8 °F 21% 29.82 in 10.0 mi West 11.5 mph - N/A   Clear
2:35 AM 59.0 °F - 14.0 °F 17% 29.82 in 10.0 mi West 18.4 mph - N/A   Clear
2:55 AM 57.2 °F - 14.0 °F 18% 29.83 in 10.0 mi West 16.1 mph - N/A   Clear
3:15 AM 59.0 °F - 14.0 °F 17% 29.84 in 10.0 mi West 13.8 mph - N/A   Clear
3:35 AM 57.2 °F - 14.0 °F 18% 29.84 in 10.0 mi West 16.1 mph - N/A   Clear
3:55 AM 55.4 °F - 14.0 °F 20% 29.85 in 10.0 mi West 12.7 mph - N/A   Clear
4:15 AM 53.6 °F - 14.0 °F 21% 29.86 in 10.0 mi West 12.7 mph - N/A   Clear
4:35 AM 51.8 °F - 14.0 °F 22% 29.87 in 10.0 mi West 10.4 mph - N/A   Clear
4:55 AM 48.2 °F - 14.0 °F 25% 29.89 in 10.0 mi WNW 6.9 mph - N/A   Clear
5:50 AM 44.6 °F - 14.0 °F 29% 29.90 in 10.0 mi Calm Calm - N/A   Clear
6:50 AM 44.6 °F 38.4 °F 10.4 °F 25% 29.93 in 10.0 mi West 12.7 mph - N/A   Clear
7:50 AM 48.2 °F - 10.4 °F 22% 29.96 in 10.0 mi NW 8.1 mph - N/A   Clear
8:50 AM 53.6 °F - 23.0 °F 30% 30.02 in 10.0 mi North 17.3 mph 23.0 mph N/A   Clear
9:50 AM 53.6 °F - 28.4 °F 38% 30.04 in 10.0 mi NNE 16.1 mph - N/A   Clear
11:50 AM 59.0 °F - 28.4 °F 31% 30.04 in 10.0 mi NE 11.5 mph - N/A   Clear
1:50 PM 64.4 °F - 24.8 °F 22% 30.00 in 10.0 mi SSE 6.9 mph - N/A   Clear
2:50 PM 66.2 °F - 19.4 °F 17% 29.96 in 10.0 mi Calm Calm - N/A   Clear
3:50 PM 71.6 °F - 17.6 °F 13% 29.93 in 10.0 mi South 16.1 mph 24.2 mph N/A   Clear
4:50 PM 73.4 °F - 15.8 °F 11% 29.91 in 10.0 mi South 13.8 mph 18.4 mph N/A   Clear
5:50 PM 73.4 °F - 12.2 °F 10% 29.90 in 10.0 mi SSW 15.0 mph 18.4 mph N/A   Clear
6:15 PM 73.4 °F - 8.6 °F 8% 29.91 in 10.0 mi SW 13.8 mph - N/A   Clear
6:35 PM 71.6 °F - 6.8 °F 8% 29.91 in 10.0 mi SW 9.2 mph - N/A   Clear
6:55 PM 68.0 °F - 6.8 °F 9% 29.90 in 10.0 mi SSW 6.9 mph - N/A   Clear
7:15 PM 66.2 °F - 6.8 °F 10% 29.91 in 10.0 mi Calm Calm - N/A   Clear
7:35 PM 62.6 °F - 6.8 °F 11% 29.92 in 10.0 mi SSW 6.9 mph - N/A   Clear
7:55 PM 59.0 °F - 5.0 °F 12% 29.93 in 10.0 mi SSW 9.2 mph - N/A   Clear
8:15 PM 57.2 °F - 5.0 °F 12% 29.93 in 10.0 mi South 9.2 mph - N/A   Clear
8:35 PM 55.4 °F - 5.0 °F 13% 29.93 in 10.0 mi South 10.4 mph - N/A   Clear
8:55 PM 55.4 °F - 5.0 °F 13% 29.95 in 10.0 mi SSW 4.6 mph - N/A   Clear
9:15 PM 51.8 °F - 5.0 °F 15% 29.95 in 10.0 mi SSW 9.2 mph - N/A   Clear
9:35 PM 51.8 °F - 5.0 °F 15% 29.95 in 10.0 mi SSW 8.1 mph - N/A   Clear
9:55 PM 50.0 °F - 5.0 °F 16% 29.96 in 10.0 mi South 5.8 mph - N/A   Clear
10:15 PM 50.0 °F - 5.0 °F 16% 29.96 in 10.0 mi Calm Calm - N/A   Clear
10:35 PM 48.2 °F - 6.8 °F 19% 29.96 in 10.0 mi SW 9.2 mph - N/A   Clear
10:55 PM 48.2 °F - 6.8 °F 19% 29.96 in 10.0 mi Calm Calm - N/A   Clear
11:15 PM 48.2 °F - 6.8 °F 19% 29.97 in 10.0 mi Calm Calm - N/A   Clear
11:35 PM 48.2 °F - 6.8 °F 19% 29.96 in 10.0 mi Calm Calm - N/A   Clear
11:55 PM 48.2 °F - 8.6 °F 20% 29.96 in 10.0 mi Calm Calm - N/A   Clear